This demonstration page uses our WeatherBlox Daily Observations layout. Learn more.

Left ArrowRight Arrow

41.55636, -103.73856

Hourly Observations for December 13, 2020

Temp ( °F °C ) Dew Point ( °F °C ) Humidity (%) Winds ( mph kmh ) Pressure ( in mb ) Visibility ( mi km ) Precip ( " mm )
12:58 am 00:58 Clear 13 -10.6 10 -12.1 89 89 WSW 5 7 30.31 1026 10 16 0.00 0.00
1:58 am 01:58 Clear 10 -12.1 8 -13.6 89 89 W 7 11 30.31 1027 10 16 0.00 0.00
2:58 am 02:58 Clear 8 -13.6 5 -15 89 89 WSW 5 7 30.35 1028 10 16 0.00 0.00
3:58 am 03:58 Clear 6 -14.4 4 -15.6 91 91 W 7 11 30.37 1028 10 16 0.00 0.00
4:58 am 04:58 Clear 8 -13.1 6 -14.7 88 88 W 6 9 30.38 1029 10 16 0.00 0.00
5:58 am 05:58 Clear 8 -13.4 4 -15.6 84 84 WSW 6 9 30.40 1029 10 16 0.00 0.00
6:58 am 06:58 Clear 7 -14.1 2 -16.8 80 80 WSW 10 17 30.43 1031 10 16 0.00 0.00
7:58 am 07:58 Sunny 8 -13.1 4 -15.6 82 82 WSW 8 13 30.42 1030 10 16 0.00 0.00
8:58 am 08:58 Sunny 16 -9.1 9 -13 74 74 W 13 20 30.42 1030 10 16 0.00 0.00
9:58 am 09:58 Sunny 20 -6.8 11 -11.6 69 69 W 8 13 30.40 1030 10 16 0.00 0.00
10:58 am 10:58 Sunny 22 -5.3 12 -11.3 63 63 W 6 9 30.37 1029 10 16 0.01 0.25
11:58 am 11:58 Sunny 24 -4.3 13 -10.8 61 61 W 6 9 30.34 1027 10 16 0.00 0.00
12:58 pm 12:58 Sunny 26 -3.5 11 -11.6 54 54 W 5 7 30.35 1028 10 16 0.00 0.00
1:58 pm 13:58 Sunny 27 -2.6 16 -9 62 62 WSW 9 15 30.34 1027 10 16 0.01 0.25
2:58 pm 14:58 Sunny 27 -3 17 -8.4 67 67 SW 12 19 30.32 1027 10 16 0.00 0.00
3:58 pm 15:58 Sunny 25 -4.1 16 -8.9 70 70 SW 15 24 30.33 1027 10 16 0.00 0.00
4:58 pm 16:58 Mostly Clear 21 -6 14 -9.9 74 74 SW 16 26 30.33 1027 10 16 0.00 0.00
5:58 pm 17:58 Clear 20 -6.7 12 -11.1 71 71 SSW 18 30 30.31 1026 10 16 0.00 0.00
6:58 pm 18:58 Clear 19 -7.2 10 -12.1 68 68 SSW 17 28 30.31 1027 10 16 0.00 0.00
7:58 pm 19:58 Clear 19 -7.1 10 -12.5 66 66 SSW 17 28 30.28 1025 10 16 0.00 0.00
8:58 pm 20:58 Clear 17 -8.4 8 -13.1 69 69 W 6 9 30.24 1024 10 16 0.00 0.00
9:58 pm 21:58 Mostly Clear 20 -6.4 10 -12.5 62 62 SSW 21 33 30.20 1023 10 16 0.00 0.00
10:58 pm 22:58 Mostly Cloudy 22 -5.6 10 -12.4 59 59 SSW 17 28 30.19 1022 10 16 0.00 0.00
11:58 pm 23:58 Mostly Cloudy 23 -4.8 10 -12.3 56 56 S 13 20 30.12 1020 10 16 0.00 0.00

Powered by AerisWeather